Location: �couen
(49.0206°N, 2.3831°E)
Time: 23:44:52
(UTC+00:00)

Cosmos 1758 - Pass Details

Date: 03 June 2022
Orbit: 538 x 557 km, 82.5° (Epoch: 01 July)

Event Time Altitude Azimuth Distance (km) Brightness Sun altitude
Rises 23:12:52 0° 343° (NNW) 2,722 8.5 -18.1°
Reaches altitude 10° 23:15:08 10° 335° (NNW) 1,827 7.1 -18.2°
Maximum altitude 23:18:50 36° 268° (W) 878 4.3 -18.3°
Enters shadow 23:20:11 28° 227° (SW) 1,056 4.4 -18.3°
